Wind_Speed
2 3 3 3 3 3 4 4 4 4 4 3 3 3 3 3 3 3 3 3 3 3 3 3 3 4 3 3 2 2 3 4 5 5 5 5 6 6 5 6 6 6 7
3 3 3 4 4 4 4 4 4 4 4 4 4 3 3 3 3 3 4 4 4 4 4 4 4 4 4 4 4 3 4 4 5 6 6 6 7 7 7 7 7 7 7
4 4 5 5 5 5 5 5 5 5 5 5 4 4 4 4 4 4 4 5 5 5 5 5 5 5 5 5 5 5 5 6 6 6 7 7 8 8 8 8 8 7 7
4 5 5 5 5 6 6 6 6 7 7 6 6 6 6 6 6 6 6 6 6 6 6 6 6 6 6 6 6 6 7 7 7 7 7 8 8 8 9 9 9 9 8
5 5 5 6 6 6 7 7 8 8 8 8 7 7 7 8 8 7 7 7 6 7 7 7 7 7 6 7 7 7 7 7 8 8 8 9 9 9 9 10 10 10 9
6 5 5 6 7 7 7 8 9 9 9 9 9 9 9 9 9 8 8 8 7 7 8 8 8 8 8 7 7 7 7 8 9 9 9 9 9 10 10 10 10 10 10
6 6 6 6 6 6 7 8 9 9 9 9 9 9 9 9 9 9 8 8 8 9 9 8 8 8 8 8 8 8 8 8 9 9 9 10 10 10 10 10 10 10 10
6 7 7 7 7 7 7 8 9 9 8 8 8 8 9 9 9 8 8 9 9 9 9 8 8 8 8 9 9 8 8 8 9 9 8 9 9 10 10 10 11 11 11
7 7 7 7 7 8 8 8 6 5 5 6 7 7 8 8 8 8 9 9 9 9 9 9 9 9 8 8 8 8 8 8 8 9 10 10 9 10 10 11 11 12 12
7 7 7 7 7 7 7 7 6 4 4 4 6 7 7 8 8 8 8 9 9 9 9 10 9 10 9 9 8 8 8 8 9 10 10 11 11 11 11 11 12 12 13
8 8 7 7 7 7 7 7 7 5 5 5 6 7 7 8 8 8 8 8 9 9 9 9 10 10 9 9 9 9 9 9 10 10 11 12 12 13 13 13 13 13 13
8 8 7 7 7 7 8 7 7 7 6 7 7 7 8 8 9 9 9 9 9 9 9 9 9 10 10 10 10 10 10 10 11 11 12 13 13 13 13 13 13 14 13
8 8 8 8 8 7 7 8 8 8 8 9 9 8 8 9 9 10 10 10 9 9 10 10 10 10 10 11 11 11 11 11 12 12 13 13 13 13 13 13 13 14 14
8 8 9 9 8 8 8 9 9 9 9 9 9 9 9 9 10 10 10 10 10 10 11 11 11 11 11 11 11 11 12 12 12 13 13 13 14 14 13 13 14 14 14
9 9 9 10 10 9 9 10 9 9 9 10 10 10 10 10 11 11 11 11 11 12 12 12 12 12 12 12 12 12 12 12 12 12 13 13 14 14 14 14 15 14 14
10 10 10 10 11 10 10 11 11 11 10 10 11 11 11 11 12 12 12 13 13 13 13 13 13 14 14 14 14 14 14 13 13 13 13 14 14 15 15 15 15 15 14
11 11 11 11 12 12 12 12 12 12 12 12 12 12 12 12 13 13 14 14 14 14 14 14 14 14 15 15 15 15 15 15 14 14 14 15 15 15 15 15 15 15 15
12 12 12 12 13 13 13 13 13 13 13 13 13 13 13 13 13 14 15 15 15 15 15 15 15 15 15 15 16 15 15 15 16 15 15 15 16 15 15 15 16 16 16
12 12 13 13 13 14 14 14 14 13 13 13 14 14 14 14 14 15 15 15 15 15 15 16 16 16 16 16 15 15 15 15 16 16 16 16 16 16 16 16 15 16 16
12 12 13 14 14 14 14 14 14 15 15 14 15 15 15 15 15 15 16 16 15 15 15 15 16 16 16 16 16 15 16 15 15 16 16 16 16 16 16 16 16 15 15
12 13 14 14 14 14 14 14 14 15 15 15 15 15 15 15 16 16 16 16 16 16 16 16 17 17 17 17 17 17 16 17 16 16 16 16 16 16 16 16 17 16 16
13 13 14 14 14 14 14 14 14 15 14 15 16 15 16 16 16 16 16 16 16 16 16 16 16 17 18 18 18 18 18 18 18 18 17 17 17 16 16 16 17 16 16
13 13 14 14 14 14 14 15 15 15 15 16 16 16 16 16 16 17 17 17 17 17 17 17 17 17 17 18 18 19 19 19 19 19 18 18 18 17 16 16 17 17 17
13 14 14 14 14 14 15 15 15 16 16 16 17 16 17 17 17 18 18 18 18 18 18 18 19 19 19 19 20 20 20 20 19 19 19 19 19 18 17 17 17 17 17
13 14 14 14 14 15 15 16 16 16 16 17 17 18 18 19 19 19 19 19 19 19 19 20 20 20 20 21 21 21 21 20 20 20 20 20 20 19 18 18 18 18 17
14 14 14 14 15 15 16 16 17 16 17 17 17 18 19 19 20 20 20 20 20 20 20 21 21 21 21 21 21 21 21 21 21 20 20 21 21 21 20 19 18 18 18
Wind_Direction
252 259 266 276 282 287 285 289 298 295 294 298 298 292 290 287 288 296 298 298 296 301 298 304 311 306 301 290 282 261 236 229 225 220 224 227 231 233 233 233 242 249 248
252 252 264 267 274 286 290 294 298 292 293 293 289 280 284 284 288 298 295 288 286 291 295 293 299 304 296 289 276 263 251 247 246 243 244 242 241 243 243 245 248 253 253
259 258 269 272 273 280 285 288 288 288 288 284 278 272 275 279 283 288 293 285 281 285 289 292 292 297 294 284 276 269 255 251 254 251 249 247 247 249 249 248 248 251 251
268 266 273 275 276 281 284 285 284 282 279 276 267 265 271 277 281 285 286 282 279 284 286 288 292 292 288 278 275 273 262 252 250 250 247 249 250 250 250 247 246 245 249
269 272 275 275 279 285 288 290 290 286 279 271 265 264 268 273 277 279 279 276 275 279 281 284 285 287 289 280 276 275 266 256 250 250 249 250 250 249 249 248 247 244 249
266 271 279 275 277 284 289 289 289 286 278 266 261 263 264 269 272 274 273 273 273 276 280 282 281 283 284 281 276 272 271 261 257 255 252 249 248 247 248 249 247 244 247
269 274 278 274 278 281 284 289 289 287 278 264 259 263 266 269 271 272 272 272 271 272 275 277 277 278 280 281 277 273 269 268 263 258 254 249 246 247 250 249 247 248 250
275 278 279 276 282 287 290 292 293 290 277 262 259 261 266 269 270 271 270 271 271 270 273 275 272 274 279 281 279 275 268 265 260 255 257 253 251 251 253 253 252 254 256
277 279 279 278 281 287 291 298 307 303 280 264 261 260 263 265 270 269 270 270 270 269 271 272 272 273 272 275 275 272 269 267 264 258 258 258 259 259 258 257 258 258 260
276 278 278 280 283 287 291 296 305 296 275 266 264 261 260 264 268 268 270 269 268 270 270 269 270 272 270 271 272 268 268 270 270 264 259 257 256 258 261 262 260 259 262
270 274 275 279 280 285 289 290 292 293 280 277 270 265 268 269 269 269 269 267 269 269 272 272 269 269 268 270 271 269 268 269 271 270 264 261 258 256 257 260 261 261 262
266 268 270 275 278 282 286 286 285 286 285 283 280 275 275 273 270 269 268 270 270 270 271 270 269 269 268 269 269 268 268 268 270 271 267 264 263 262 261 262 264 265 265
267 269 271 275 279 281 285 284 282 283 285 285 285 284 279 274 271 269 268 269 269 271 270 268 269 270 270 271 269 268 270 271 268 270 268 264 264 266 265 264 266 266 266
270 269 270 271 277 282 286 285 284 285 285 282 283 284 281 275 271 268 267 267 268 268 267 267 269 270 270 271 271 271 272 274 272 273 270 268 266 265 265 266 266 266 266
275 272 272 273 276 280 285 284 284 285 282 278 281 280 277 275 274 272 270 269 269 267 267 268 268 266 267 269 272 272 272 273 274 276 273 270 267 264 265 267 269 268 267
274 273 271 273 277 277 281 284 284 283 278 277 280 279 276 275 276 273 271 270 268 268 269 269 267 269 267 269 272 272 272 272 273 274 274 270 268 266 267 269 268 267 265
271 273 277 276 278 279 281 281 281 278 276 276 278 278 279 279 278 274 273 274 271 268 269 269 269 268 267 267 269 269 270 270 270 271 270 267 268 268 270 271 270 267 267
271 272 275 277 278 279 280 280 278 276 277 277 277 278 278 280 280 276 274 274 273 271 270 267 267 268 268 268 267 268 269 269 268 268 266 267 268 268 270 270 270 268 268
271 274 275 275 278 280 280 281 281 276 275 275 275 276 276 278 280 279 277 275 272 271 271 269 267 268 269 268 268 267 268 269 268 266 265 266 269 268 268 269 270 269 268
273 275 276 276 276 277 278 279 279 276 275 273 275 276 278 280 280 280 279 275 272 272 272 271 270 268 267 267 268 268 267 268 268 266 265 266 268 268 267 269 271 270 268
276 276 276 276 276 276 278 279 281 281 279 276 276 277 278 280 280 280 279 275 271 270 271 270 270 269 267 267 268 269 269 268 268 267 265 266 268 270 269 269 270 269 267
277 276 276 277 278 278 279 280 280 281 283 283 280 279 280 280 279 279 277 275 275 273 271 271 270 270 269 268 268 268 269 269 268 269 269 269 269 270 271 270 266 267 267
277 279 279 279 279 279 281 282 282 283 283 282 280 280 282 281 278 277 276 273 273 273 272 271 271 271 271 271 271 271 270 270 270 269 268 269 269 269 269 270 267 267 268
278 280 282 281 282 283 284 285 286 285 285 282 281 279 283 283 281 277 275 273 272 272 272 273 272 270 271 272 271 272 272 271 269 268 267 268 269 269 269 269 268 265 266
280 283 282 283 284 284 285 287 286 287 287 286 286 284 285 286 284 279 276 275 274 273 273 273 274 273 272 272 271 271 271 270 268 266 266 266 267 268 269 269 267 265 264
281 282 283 284 284 283 284 285 286 287 289 289 289 288 288 288 286 281 277 276 275 275 274 274 274 274 273 272 272 271 271 270 268 267 266 266 265 266 267 267 265 263 261
Height
5862 5862 5862 5862 5862 5862 5862 5862 5862 5862 5862 5862 5862 5863 5863 5864 5864 5865 5865 5865 5866 5866 5866 5866 5866 5866 5866 5866 5866 5866 5867 5867 5868 5869 5870 5870 5871 5871 5872 5872 5873 5874 5874
5861 5861 5861 5861 5861 5861 5861 5861 5861 5861 5861 5861 5861 5862 5862 5863 5864 5864 5864 5865 5865 5865 5865 5866 5866 5866 5866 5866 5866 5866 5866 5867 5868 5868 5869 5870 5870 5871 5871 5872 5872 5873 5873
5860 5860 5861 5860 5860 5860 5860 5860 5860 5859 5859 5860 5860 5861 5861 5862 5863 5863 5863 5864 5864 5864 5865 5865 5865 5865 5865 5865 5865 5865 5866 5866 5867 5867 5868 5869 5869 5870 5870 5871 5871 5872 5872
5859 5859 5860 5859 5859 5859 5859 5858 5858 5858 5858 5858 5859 5859 5860 5861 5861 5862 5862 5862 5863 5863 5864 5864 5864 5864 5864 5865 5865 5865 5865 5865 5866 5866 5867 5867 5868 5868 5869 5869 5870 5871 5871
5858 5858 5858 5858 5858 5858 5857 5857 5856 5856 5856 5856 5857 5858 5859 5859 5860 5860 5861 5861 5861 5862 5862 5862 5863 5863 5863 5863 5863 5863 5863 5863 5864 5865 5865 5866 5866 5867 5867 5868 5868 5869 5869
5857 5857 5857 5857 5856 5856 5856 5855 5854 5852 5852 5853 5855 5856 5857 5858 5859 5859 5859 5860 5860 5860 5861 5861 5861 5861 5862 5861 5862 5862 5862 5862 5863 5863 5864 5864 5865 5865 5865 5866 5866 5867 5867
5855 5855 5855 5855 5855 5855 5854 5853 5851 5849 5849 5850 5852 5854 5855 5856 5857 5857 5857 5858 5858 5859 5859 5859 5860 5860 5860 5860 5860 5860 5860 5861 5861 5861 5862 5862 5863 5863 5864 5864 5865 5865 5865
5854 5854 5854 5854 5854 5853 5853 5852 5849 5846 5846 5848 5850 5852 5853 5854 5855 5855 5856 5856 5857 5857 5857 5858 5858 5858 5858 5858 5858 5859 5859 5859 5859 5860 5860 5860 5861 5861 5862 5862 5863 5863 5863
5853 5853 5853 5853 5853 5852 5852 5851 5847 5845 5845 5847 5849 5850 5851 5852 5853 5853 5854 5854 5855 5855 5855 5856 5856 5856 5857 5857 5857 5857 5857 5857 5858 5858 5858 5859 5859 5860 5860 5860 5860 5861 5861
5852 5852 5852 5851 5851 5851 5850 5850 5848 5846 5846 5847 5848 5849 5849 5850 5851 5852 5852 5852 5853 5853 5854 5854 5854 5854 5854 5855 5855 5855 5855 5855 5856 5856 5856 5856 5857 5857 5858 5858 5858 5858 5859
5851 5850 5850 5850 5850 5850 5849 5849 5848 5847 5847 5847 5847 5848 5848 5849 5850 5850 5850 5851 5851 5851 5851 5852 5852 5852 5852 5853 5853 5853 5853 5854 5854 5854 5854 5854 5854 5855 5855 5856 5856 5856 5856
5849 5849 5849 5849 5848 5848 5848 5848 5848 5847 5847 5847 5847 5847 5847 5847 5848 5848 5848 5848 5849 5849 5849 5850 5850 5850 5850 5850 5851 5851 5851 5851 5851 5851 5851 5852 5852 5852 5852 5853 5853 5853 5853
5847 5847 5847 5847 5847 5847 5847 5846 5846 5846 5846 5846 5846 5846 5845 5846 5846 5846 5846 5846 5846 5847 5847 5847 5847 5848 5848 5848 5848 5848 5848 5849 5849 5849 5849 5849 5849 5849 5849 5849 5850 5850 5850
5845 5845 5845 5845 5845 5845 5845 5845 5844 5844 5844 5844 5844 5844 5844 5844 5844 5844 5844 5844 5844 5844 5845 5845 5845 5845 5845 5845 5845 5846 5846 5846 5846 5846 5846 5846 5846 5846 5846 5846 5846 5847 5847
5843 5843 5843 5843 5843 5843 5843 5843 5843 5842 5842 5842 5842 5842 5842 5842 5842 5842 5842 5842 5842 5842 5842 5842 5842 5842 5842 5842 5843 5843 5843 5843 5843 5843 5843 5843 5843 5843 5843 5844 5843 5844 5844
5841 5841 5841 5841 5841 5841 5841 5841 5841 5840 5840 5840 5840 5839 5839 5839 5839 5839 5839 5839 5839 5839 5839 5839 5839 5839 5839 5839 5840 5840 5840 5840 5840 5840 5840 5840 5840 5840 5840 5840 5840 5840 5840
5839 5839 5839 5839 5839 5839 5839 5838 5838 5838 5838 5837 5837 5837 5837 5836 5836 5836 5836 5836 5836 5836 5836 5836 5836 5836 5836 5836 5836 5836 5837 5836 5837 5837 5837 5837 5837 5837 5837 5837 5837 5837 5837
5836 5836 5836 5836 5836 5836 5836 5836 5835 5835 5835 5835 5834 5834 5834 5833 5833 5833 5833 5833 5833 5833 5832 5832 5833 5832 5832 5832 5833 5833 5833 5833 5833 5833 5833 5833 5833 5833 5833 5833 5833 5833 5833
5834 5834 5833 5833 5833 5833 5833 5833 5832 5832 5832 5831 5831 5831 5830 5830 5830 5830 5829 5829 5829 5829 5829 5829 5829 5829 5829 5829 5829 5829 5829 5829 5829 5829 5829 5830 5829 5830 5830 5829 5829 5829 5829
5831 5831 5831 5830 5830 5830 5830 5830 5829 5829 5828 5828 5828 5827 5827 5826 5826 5826 5826 5825 5825 5825 5825 5825 5825 5825 5825 5825 5825 5825 5825 5826 5826 5826 5826 5826 5826 5826 5826 5825 5825 5825 5825
5827 5828 5827 5827 5827 5827 5827 5826 5826 5825 5825 5824 5824 5824 5823 5823 5822 5822 5822 5821 5821 5821 5821 5821 5821 5821 5821 5821 5821 5821 5821 5822 5822 5822 5821 5821 5822 5821 5822 5822 5821 5821 5822
5824 5824 5824 5823 5823 5823 5823 5822 5822 5822 5821 5821 5820 5820 5819 5819 5818 5818 5817 5817 5817 5817 5817 5816 5816 5816 5816 5817 5817 5817 5817 5818 5817 5817 5817 5817 5817 5817 5817 5817 5817 5818 5818
5820 5820 5820 5820 5819 5819 5819 5819 5818 5818 5817 5817 5816 5815 5815 5814 5814 5813 5813 5813 5812 5812 5812 5812 5812 5812 5812 5812 5812 5812 5812 5813 5813 5813 5813 5813 5813 5813 5814 5814 5813 5814 5814
5817 5816 5816 5816 5816 5815 5815 5814 5814 5814 5813 5812 5812 5811 5810 5810 5809 5809 5808 5808 5807 5807 5807 5807 5807 5807 5807 5807 5807 5807 5808 5807 5808 5808 5808 5808 5808 5809 5809 5809 5809 5809 5810
5813 5813 5812 5812 5812 5811 5811 5810 5810 5809 5809 5808 5807 5807 5806 5805 5804 5804 5803 5803 5802 5802 5802 5802 5802 5802 5802 5802 5802 5802 5802 5802 5802 5803 5803 5803 5803 5804 5804 5804 5804 5805 5805
5810 5809 5809 5808 5808 5807 5807 5806 5806 5805 5804 5804 5803 5802 5801 5800 5799 5799 5798 5797 5797 5797 5797 5796 5796 5796 5796 5796 5796 5796 5796 5796 5797 5797 5798 5798 5798 5799 5799 5799 5800 5800 5801